This demonstration page uses our WeatherBlox Daily Observations layout. Learn more.

39.01783, -85.05884

Hourly Observations for October 1, 2020

Temp ( °F °C ) Dew Point ( °F °C ) Humidity (%) Winds ( mph kmh ) Pressure ( in mb ) Visibility ( mi km ) Precip ( " mm )
12:52 am 00:52 Mostly Clear 53 11.7 40 4.4 61 61 WNW 5 7 29.95 1014 10 16.0934 0 0
1:52 am 01:52 Clear 50 10 40 4.4 68 68 WSW 5 7 29.96 1015 10 16.0934 0 0
2:52 am 02:52 Clear 49 9.4 41 5 74 74 Calm 29.95 1014 10 16.0934 0 0
3:52 am 03:52 Clear 44 6.7 41 5 89 89 SSW 6 9 29.95 1014 10 16.0934 0 0
4:52 am 04:52 Clear 48 8.9 41 5 77 77 SSW 7 11 29.95 1014 10 16.0934 0 0
5:52 am 05:52 Clear 47 8.3 41 5 80 80 SSW 6 9 29.96 1014 10 16.0934 0 0
6:52 am 06:52 Clear 47 8.3 41 5 80 80 SSW 7 11 29.97 1015 10 16.0934 0 0
7:52 am 07:52 Mostly Sunny 47 8.3 42 5.6 83 83 SSW 6 9 29.97 1015 10 16.0934 0 0
8:52 am 08:52 Mostly Sunny 51 10.6 44 6.7 77 77 SSW 8 13 29.98 1015 10 16.0934 0 0
9:52 am 09:52 Sunny 57 13.9 43 6.1 60 60 WSW 9 15 29.99 1016 10 16.0934 0 0
10:52 am 10:52 Mostly Sunny 61 16.1 43 6.1 52 52 WSW 9 15 29.99 1016 10 16.0934 0 0
11:52 am 11:52 Mostly Sunny 64 17.8 41 5 43 43 SW 10 17 29.99 1016 10 16.0934 0 0
12:52 pm 12:52 Partly Cloudy 66 18.9 38 3.3 36 36 W 15 24 29.99 1016 10 16.0934 0 0
1:52 pm 13:52 Mostly Cloudy 65 18.3 35 1.7 33 33 W 13 20 29.98 1015 10 16.0934 0 0
2:37 pm 14:37 Mostly Cloudy 63 17.2 36 2.2 37 37 WNW 15 24 29.99 1015 10 16.0934 0 0
2:52 pm 14:52 Mostly Cloudy 68 20 37 2.8 32 32 WNW 10 17 29.98 1015 10 16.0934 0 0
3:52 pm 15:52 Mostly Cloudy 64 17.8 33 0.6 32 32 WNW 21 33 29.99 1016 10 16.0934 0 0
4:52 pm 16:52 Mostly Cloudy 61 16.1 33 0.6 35 35 WSW 9 15 30 1016 10 16.0934 0 0
5:52 pm 17:52 Mostly Cloudy 60 15.6 35 1.7 39 39 WNW 12 19 30.01 1016 10 16.0934 0.001 0.001
6:52 pm 18:52 Mostly Cloudy 56 13.3 36 2.2 47 47 W 12 19 30.04 1017 10 16.0934 0 0
7:52 pm 19:52 Mostly Cloudy 52 11.1 39 3.9 61 61 WSW 5 7 30.04 1017 10 16.0934 0.01 0.254
8:52 pm 20:52 Partly Cloudy 50 10 39 3.9 66 66 W 8 13 30.06 1018 10 16.0934 0 0
9:52 pm 21:52 Mostly Clear 47 8.3 38 3.3 71 71 W 8 13 30.08 1019 10 16.0934 0 0
10:52 pm 22:52 Clear 48 8.9 39 3.9 71 71 WNW 8 13 30.09 1019 10 16.0934 0 0
11:52 pm 23:52 Clear 48 8.9 39 3.9 71 71 WNW 8 13 30.09 1019 10 16.0934 0 0

Powered by AerisWeather